Wind_Speed
32 34 32 32 28 26 23 22 19 17 16 15 15 14 12 11 11 10 8 6 4 3 3 4 4 4 2 1 0 2 4 4 4 3 2 3 4 6 9 10 11 11 11
35 37 35 34 32 29 27 24 22 20 19 18 16 16 13 12 11 11 9 7 6 4 4 4 5 5 4 3 1 2 3 3 3 2 3 3 4 7 10 11 11 11 10
35 39 38 37 35 32 29 26 25 23 21 20 18 18 15 12 12 12 10 9 8 7 5 5 6 5 5 5 3 2 3 3 3 3 3 3 5 7 10 11 11 11 10
41 39 40 38 37 36 32 28 27 26 24 22 20 19 18 15 13 13 12 11 10 9 7 7 7 7 6 5 4 3 3 3 3 3 3 3 5 7 9 11 10 10 9
40 42 41 41 39 38 36 32 29 28 26 25 23 21 21 18 15 15 14 13 12 11 10 8 9 8 8 6 4 4 4 4 4 4 4 4 6 7 8 10 10 9 9
40 46 46 44 42 41 40 36 32 30 28 27 25 24 23 21 18 17 17 15 15 13 12 11 10 9 9 8 7 6 6 5 6 6 5 5 6 7 8 9 9 8 9
40 48 49 49 44 43 42 40 36 32 30 29 28 27 26 21 20 20 19 18 17 16 14 13 12 11 11 10 9 8 7 7 7 7 7 7 8 9 8 9 9 9 10
39 49 52 53 49 46 45 42 39 35 33 32 31 30 29 23 22 22 21 21 19 18 17 15 14 13 12 12 10 9 9 9 9 9 9 9 10 10 10 10 10 10 11
43 47 55 54 55 49 47 46 43 40 37 36 34 33 31 26 24 23 23 22 21 20 19 17 16 15 14 13 13 11 11 11 12 12 12 13 12 12 12 13 13 12 13
45 44 56 59 58 55 50 48 46 43 40 38 37 36 32 29 25 25 24 24 22 21 20 20 18 17 16 15 14 14 13 13 14 15 14 14 14 15 15 15 15 16 16
41 43 56 62 60 61 55 51 50 46 43 40 39 38 34 31 29 27 26 25 24 24 23 22 21 20 19 18 17 16 16 16 16 17 17 16 16 17 18 19 18 18 19
48 45 54 66 72 63 61 55 52 49 46 44 42 41 35 33 32 29 28 27 26 26 25 24 23 23 21 20 18 17 19 19 18 19 19 19 19 20 21 21 21 21 21
61 53 55 75 39 67 63 58 54 52 49 46 43 42 39 35 32 31 31 29 28 27 26 26 26 25 23 21 20 19 22 22 20 21 21 22 22 23 23 23 23 24 24
63 59 67 67 50 67 64 62 59 55 53 49 46 44 42 37 34 35 33 31 30 29 29 28 28 27 26 23 22 22 23 23 23 23 24 24 25 25 26 25 26 27 28
65 65 77 82 54 58 62 52 65 59 56 51 50 50 44 40 40 38 36 34 32 31 31 30 30 29 28 27 25 24 25 25 25 25 27 26 27 27 28 28 28 30 31
66 68 81 78 62 66 56 59 63 64 59 55 54 49 45 45 43 40 39 37 34 35 34 33 32 32 31 26 27 29 27 28 27 28 29 29 30 30 30 31 32 33 35
60 68 75 69 69 75 46 55 66 65 63 57 53 50 49 47 44 42 42 38 38 39 37 36 34 34 32 32 32 33 31 31 31 31 31 31 34 33 34 35 36 36 36
55 64 81 71 49 61 48 52 54 59 62 58 55 53 52 51 48 46 43 42 41 40 40 38 36 37 32 37 31 36 35 34 34 35 34 35 36 36 37 38 39 39 40
36 64 77 64 46 48 69 34 37 53 56 63 59 57 54 52 50 48 46 45 44 42 40 39 38 36 42 36 38 38 37 35 38 37 38 38 38 39 39 40 42 42 42
32 46 64 55 36 39 44 41 39 36 59 46 51 61 59 55 53 53 49 47 46 44 47 41 41 45 37 39 41 41 38 37 39 38 38 39 38 39 40 41 42 42 41
38 37 67 66 39 46 45 31 44 41 37 46 42 53 57 57 55 53 51 50 50 51 45 44 40 39 39 43 46 34 36 37 41 39 38 40 40 42 42 44 45 43 41
25 31 52 66 50 37 43 35 35 47 43 52 52 54 51 52 55 55 54 56 53 57 44 51 41 39 40 43 36 35 37 39 38 34 33 35 39 37 37 38 36 34 37
29 24 46 56 46 39 32 29 22 33 66 62 64 53 49 44 44 52 55 56 56 57 48 52 43 39 41 29 28 31 39 37 37 38 39 40 39 40 39 37 39 38 40
28 23 41 38 38 36 30 27 23 22 31 38 34 27 36 36 38 44 52 55 53 45 58 46 45 41 43 45 46 39 38 36 38 42 41 40 44 40 42 45 43 44 43
24 23 25 29 27 27 30 22 23 23 33 34 20 28 32 41 43 48 44 48 52 49 51 42 45 38 37 37 46 38 40 51 52 50 37 23 20 23 29 31 33 37 39
25 29 26 27 29 30 32 27 25 27 26 26 23 20 34 43 51 42 48 45 45 43 37 56 58 54 40 37 46 41 48 43 39 23 17 21 24 27 29 33 36 38 42
Wind_Direction
223 237 235 238 238 235 234 241 242 245 243 243 246 248 253 264 263 261 257 256 269 281 290 291 303 303 318 347 352 217 225 225 238 256 298 330 350 358 357 1 3 5 5
221 234 237 238 239 237 233 239 242 240 243 246 243 244 246 261 257 253 250 246 252 259 272 288 288 294 301 315 311 267 240 234 239 256 292 314 335 350 352 357 0 3 5
226 231 236 237 236 235 234 234 240 242 242 246 244 242 242 251 252 246 244 245 246 252 263 286 288 287 294 305 303 274 247 230 239 266 280 302 333 346 347 353 357 360 5
228 232 234 236 236 236 233 230 236 239 242 244 242 239 239 243 243 247 242 242 248 256 265 283 292 288 288 287 292 280 261 255 247 248 264 295 327 335 342 349 352 357 0
235 232 234 235 236 236 234 229 233 237 240 241 239 236 235 238 240 241 242 241 245 252 260 274 286 284 286 286 282 276 263 253 245 235 253 288 314 323 336 343 347 352 351
242 230 230 232 232 234 236 233 230 235 238 240 238 236 235 234 239 243 243 242 243 248 257 267 277 277 276 277 275 275 268 251 241 243 250 272 297 310 325 338 340 340 335
249 233 228 229 230 231 234 232 230 233 238 238 238 238 237 230 238 238 242 242 244 247 253 259 269 274 275 274 276 277 271 261 252 251 262 278 293 301 311 324 329 326 323
263 239 230 231 226 228 231 232 230 230 235 237 237 238 238 230 233 237 239 242 244 248 254 257 263 269 275 280 279 280 277 273 268 263 266 272 281 293 301 308 311 312 313
268 250 229 229 228 226 228 230 229 229 231 235 237 238 241 233 231 237 240 242 245 248 250 253 258 263 270 275 281 282 278 274 271 267 268 272 276 283 288 292 300 304 303
269 257 230 228 228 226 226 228 229 228 230 234 237 239 240 240 235 238 242 245 247 251 254 255 256 259 263 269 273 277 276 272 270 267 267 269 273 278 281 283 289 294 297
259 252 236 229 227 226 224 226 225 228 230 234 238 239 239 241 241 240 243 247 251 253 255 256 258 259 260 263 267 273 274 270 267 267 267 268 271 272 275 278 284 290 296
259 238 229 231 225 226 220 223 225 226 229 232 236 240 239 239 242 244 246 248 253 254 257 259 258 258 259 261 265 272 275 270 269 267 269 268 268 271 274 279 284 288 292
264 244 229 222 245 220 224 222 224 226 227 229 232 237 238 239 243 245 247 248 250 254 255 257 258 259 257 258 263 272 276 272 269 269 269 269 269 271 275 279 282 287 290
260 240 225 222 231 223 219 222 224 225 227 228 230 234 237 239 241 244 246 248 249 251 255 256 256 257 256 255 259 269 273 273 270 267 268 270 272 274 276 278 282 284 286
256 238 223 214 211 222 210 227 224 226 226 227 229 231 235 237 239 241 245 247 248 250 253 255 255 256 255 255 258 265 270 271 270 269 270 269 272 272 275 277 278 281 284
244 234 218 217 213 230 205 216 224 225 227 227 229 231 232 235 238 241 243 245 247 250 250 252 255 256 255 255 269 269 270 269 270 270 268 270 270 272 274 277 279 282 285
235 228 216 219 212 217 197 211 218 221 226 226 228 229 232 236 238 240 243 246 246 248 251 252 254 256 253 269 264 269 270 270 271 271 269 270 272 273 276 277 278 280 283
228 229 215 206 201 196 205 218 222 220 220 224 225 229 232 235 238 239 242 244 248 249 250 253 256 257 254 271 262 271 270 272 273 273 274 272 271 273 274 277 278 279 281
234 230 205 204 204 198 211 212 207 219 214 225 227 231 235 238 240 241 241 244 247 247 249 255 256 255 262 260 263 268 271 273 273 277 277 276 276 276 275 276 278 280 280
225 236 214 203 201 200 209 206 203 214 224 221 225 232 234 237 241 242 242 244 246 245 250 249 254 255 270 255 263 267 267 272 275 277 279 280 279 277 277 276 277 278 281
206 227 224 214 210 209 207 209 220 210 204 220 223 224 230 232 233 239 242 241 243 244 249 247 255 267 257 263 269 267 271 274 275 277 278 275 278 278 279 277 277 280 283
193 219 225 220 215 215 215 222 231 225 209 208 214 217 225 230 235 237 237 239 242 245 242 250 252 258 256 267 279 263 267 268 270 275 279 282 284 283 284 286 286 285 283
188 170 219 208 221 203 209 216 224 233 231 217 219 224 226 224 228 232 239 241 245 245 241 246 250 256 255 256 264 270 273 266 271 274 276 281 281 281 282 279 280 282 285
178 162 186 201 198 201 211 222 243 241 220 229 226 224 237 240 239 242 249 256 264 250 247 249 252 255 257 258 269 273 276 267 270 271 272 270 276 276 276 275 279 279 285
167 181 180 184 193 204 204 216 222 222 215 221 242 244 250 243 250 255 265 263 264 258 277 262 282 277 273 279 278 277 278 281 268 262 261 274 308 301 305 300 280 273 272
184 185 179 184 199 206 211 192 187 211 222 226 238 244 243 235 240 255 259 269 261 274 268 262 262 267 273 280 276 284 269 264 258 269 307 315 318 314 310 312 310 312 311
Height
5861 5860 5863 5865 5868 5869 5871 5873 5875 5876 5877 5878 5879 5880 5881 5882 5882 5883 5884 5884 5884 5884 5883 5883 5882 5882 5882 5881 5881 5881 5882 5883 5883 5884 5885 5884 5884 5884 5883 5882 5882 5881 5880
5855 5855 5858 5861 5864 5866 5868 5870 5872 5873 5874 5875 5877 5878 5879 5881 5881 5882 5883 5883 5883 5883 5883 5883 5882 5882 5881 5881 5881 5881 5881 5882 5882 5883 5884 5884 5884 5883 5883 5882 5881 5880 5879
5851 5849 5852 5857 5859 5862 5865 5867 5869 5871 5872 5873 5874 5876 5878 5879 5880 5881 5881 5882 5882 5882 5882 5882 5882 5881 5881 5881 5881 5881 5881 5881 5881 5882 5883 5883 5883 5883 5883 5881 5880 5880 5879
5843 5845 5848 5852 5856 5857 5860 5863 5866 5868 5869 5870 5871 5873 5875 5877 5878 5879 5880 5880 5881 5881 5881 5881 5882 5881 5881 5880 5880 5880 5880 5880 5881 5881 5882 5882 5882 5882 5882 5881 5880 5879 5878
5833 5838 5842 5846 5850 5854 5856 5859 5862 5864 5866 5867 5868 5870 5872 5874 5875 5876 5877 5878 5879 5880 5880 5880 5881 5881 5880 5880 5879 5880 5879 5879 5880 5880 5881 5881 5881 5881 5880 5880 5879 5878 5877
5824 5829 5833 5837 5843 5848 5852 5854 5857 5860 5862 5864 5865 5866 5868 5871 5873 5874 5875 5876 5877 5878 5878 5879 5879 5879 5879 5879 5878 5878 5879 5878 5878 5879 5879 5879 5879 5879 5879 5878 5878 5877 5876
5816 5822 5826 5830 5835 5841 5846 5850 5852 5855 5858 5859 5861 5862 5864 5867 5868 5870 5872 5873 5874 5875 5876 5877 5877 5877 5878 5878 5878 5878 5878 5878 5877 5877 5878 5878 5878 5878 5878 5877 5876 5876 5875
5809 5813 5820 5824 5828 5833 5839 5844 5847 5849 5853 5855 5856 5857 5859 5863 5864 5866 5868 5869 5871 5872 5873 5874 5875 5875 5876 5876 5876 5876 5877 5877 5877 5876 5876 5876 5876 5876 5876 5875 5874 5873 5873
5799 5804 5809 5814 5821 5825 5832 5837 5841 5844 5846 5849 5851 5852 5856 5859 5861 5862 5864 5866 5868 5869 5870 5870 5871 5872 5873 5873 5874 5875 5875 5875 5876 5875 5874 5874 5874 5873 5873 5873 5872 5871 5870
5790 5797 5803 5806 5812 5819 5824 5830 5834 5837 5840 5843 5845 5848 5852 5855 5857 5858 5861 5863 5864 5865 5867 5867 5868 5869 5870 5871 5871 5872 5872 5872 5873 5873 5872 5872 5872 5871 5870 5869 5869 5868 5868
5781 5786 5793 5796 5800 5807 5814 5820 5825 5830 5834 5838 5840 5842 5847 5851 5853 5855 5857 5859 5861 5862 5863 5864 5865 5865 5866 5867 5867 5868 5868 5868 5868 5869 5869 5868 5868 5867 5866 5866 5865 5865 5865
5771 5778 5779 5780 5788 5798 5802 5810 5817 5822 5827 5831 5835 5837 5841 5845 5848 5852 5852 5854 5857 5858 5859 5860 5861 5862 5862 5863 5864 5864 5864 5865 5865 5865 5865 5865 5864 5864 5863 5863 5863 5863 5862
5762 5770 5768 5772 5770 5782 5796 5801 5808 5814 5820 5824 5828 5831 5836 5840 5844 5846 5848 5849 5851 5854 5855 5856 5857 5858 5859 5859 5860 5860 5860 5861 5861 5862 5862 5861 5860 5860 5860 5860 5859 5859 5858
5750 5755 5758 5770 5772 5772 5786 5793 5800 5805 5812 5817 5822 5826 5829 5835 5838 5840 5843 5844 5846 5847 5850 5851 5852 5853 5854 5855 5856 5855 5856 5857 5857 5857 5857 5857 5857 5856 5856 5855 5855 5854 5852
5736 5741 5744 5756 5761 5763 5776 5784 5791 5797 5803 5811 5814 5817 5825 5828 5831 5833 5837 5838 5840 5842 5844 5846 5847 5849 5849 5850 5851 5851 5851 5851 5852 5852 5852 5853 5852 5851 5851 5851 5849 5848 5847
5719 5725 5734 5743 5756 5757 5769 5776 5779 5787 5795 5802 5806 5813 5818 5820 5823 5826 5829 5831 5833 5836 5837 5839 5841 5843 5844 5845 5846 5847 5846 5846 5846 5846 5847 5846 5847 5846 5846 5845 5845 5843 5841
5706 5715 5726 5740 5747 5750 5758 5745 5766 5776 5785 5793 5800 5806 5809 5813 5816 5819 5822 5825 5826 5828 5831 5833 5834 5836 5837 5838 5840 5841 5841 5840 5841 5840 5841 5841 5840 5840 5840 5839 5838 5837 5835
5697 5704 5715 5728 5736 5744 5753 5750 5758 5765 5777 5784 5790 5796 5800 5804 5808 5811 5814 5817 5820 5822 5824 5826 5828 5830 5831 5833 5834 5835 5834 5834 5834 5833 5835 5834 5834 5833 5831 5831 5830 5829 5828
5690 5696 5711 5724 5729 5734 5748 5751 5753 5761 5769 5775 5781 5787 5792 5797 5801 5804 5807 5809 5812 5814 5817 5819 5822 5824 5825 5827 5827 5828 5829 5828 5826 5827 5827 5827 5828 5826 5826 5824 5823 5822 5821
5687 5692 5706 5714 5725 5733 5741 5748 5751 5754 5761 5767 5773 5779 5784 5788 5792 5796 5799 5802 5805 5807 5808 5812 5814 5816 5817 5818 5819 5820 5821 5821 5819 5819 5819 5818 5820 5818 5818 5816 5815 5813 5813
5681 5687 5696 5705 5717 5727 5735 5743 5750 5753 5756 5760 5765 5768 5772 5777 5782 5787 5790 5793 5796 5797 5800 5803 5806 5808 5810 5811 5812 5811 5814 5814 5811 5811 5811 5810 5810 5809 5809 5808 5806 5805 5804
5677 5683 5689 5702 5715 5720 5729 5736 5742 5749 5747 5751 5756 5758 5762 5767 5771 5775 5778 5781 5785 5787 5791 5795 5798 5800 5803 5804 5802 5803 5805 5804 5802 5804 5803 5802 5801 5801 5801 5800 5799 5797 5796
5675 5679 5688 5700 5710 5716 5724 5729 5733 5738 5743 5744 5746 5749 5755 5759 5762 5765 5767 5770 5773 5777 5782 5784 5787 5791 5794 5795 5796 5796 5794 5794 5795 5795 5797 5793 5793 5793 5792 5791 5789 5788 5787
5674 5678 5688 5699 5703 5711 5717 5723 5728 5731 5736 5741 5742 5746 5751 5753 5755 5758 5763 5765 5768 5772 5772 5776 5779 5781 5786 5787 5788 5788 5787 5786 5785 5787 5787 5786 5785 5783 5783 5782 5781 5779 5778
5673 5679 5686 5691 5698 5707 5713 5720 5726 5729 5734 5738 5741 5743 5748 5752 5754 5756 5757 5760 5762 5767 5767 5769 5771 5773 5776 5777 5778 5779 5778 5777 5775 5777 5776 5775 5775 5774 5774 5773 5772 5771 5771
5671 5677 5684 5689 5697 5703 5709 5716 5723 5727 5732 5735 5739 5741 5743 5745 5748 5749 5752 5755 5760 5764 5759 5763 5763 5765 5769 5769 5768 5768 5770 5769 5767 5767 5768 5769 5768 5768 5766 5765 5763 5762 5760